Location: Góry Miechowskie
(50.3599°N, 20.1803°E)
Time: 08:07:21
(UTC+00:00)

A-11 Canister half - Pass Details

Date: 13 September 2024
Orbit: 1515 x 1684 km, 47.2° (Epoch: 05 October)

Event Time Altitude Azimuth Distance (km) Brightness Sun altitude
Rises 17:10:03 0° 213° (SSW) 4,725 11.9 -2.9°
Reaches altitude 10° 17:13:25 10° 205° (SSW) 3,723 11.3 -3.5°
Maximum altitude 17:21:42 37° 143° (SE) 2,207 9.5 -4.8°
Drops below altitude 10° 17:29:52 10° 80° (E) 3,678 10.4 -6.1°
Enters shadow 17:32:40 - 74° (ENE) 4,515 10.9 -6.5°
Sets 17:33:09 0° 73° (ENE) 4,663 - -6.6°
